Regional Weather Roundup
Issued by NWS

Home | Current Version | Previous Version | Graphics & Text | Print | Product List | Glossary Off
Versions: 1 2 3 4 5 6 7 8 9 10 11 12 13 14 15 16 17 18 19 20 21 22 23 24 25 26 27 28 29 30 31 32 33 34 35 36 37 38 39 40 41 42 43 44 45 46 47 48 49 50

137
ASUS43 KTOP 231759
RWRKS

WEATHER ROUNDUP FOR KANSAS
NATIONAL WEATHER SERVICE GOODLAND KS
100 PM CDT FRI JUN 23 2017

NOTE:  "FAIR" INDICATES FEW OR NO CLOUDS BELOW 12,000 FEET WITH NO
SIGNIFICANT WEATHER AND/OR OBSTRUCTIONS TO VISIBILITY.

KSZ001>006-013>018-027>032-041>047-231900-
NORTHWEST KANSAS

CITY           SKY/WX    TMP DP  RH WIND       PRES   REMARKS
GOODLAND       CLOUDY    65  46  50 N9        30.22S
6HR MIN TEMP:  52; 6HR MAX TEMP:  66; 6HR PCP:  0.16;

HAYS           PTSUNNY   69  47  45 N21G26    30.12R
HILL CITY      PTSUNNY   73  46  38 N15G23    30.15R
6HR MIN TEMP:  60; 6HR MAX TEMP:  74;

RUSSELL        CLOUDY    70  44  39 N17G29    30.07S
6HR MIN TEMP:  60; 6HR MAX TEMP:  73; 6HR PCP: TRACE;

$$

KSZ061>065-074>080-084>089-231900-
SOUTHWEST KANSAS

CITY           SKY/WX    TMP DP  RH WIND       PRES   REMARKS
DODGE CITY     MOSUNNY   71  51  49 NE23G31   30.13R
ELKHART          N/A     68  44  42 NE15        N/A
GARDEN CITY    CLOUDY    69  46  43 NE17G26   30.17R
6HR MIN TEMP:  63; 6HR MAX TEMP:  69;

GREAT BEND     CLOUDY    70  54  56 N17       30.09R
LIBERAL        SUNNY     74  51  44 N21G31    30.13F
$$

KSZ066>073-081>083-090>101-231900-
SOUTHEAST KANSAS

CITY           SKY/WX    TMP DP  RH WIND       PRES   REMARKS
CHANUTE        SUNNY     86  56  35 N17G28    29.90F
6HR MIN TEMP:  74; 6HR MAX TEMP:  86; 6HR PCP: TRACE;

COFFEYVILLE    CLOUDY    83  66  56 N20G29    29.88R
6HR MIN TEMP:  73; 6HR MAX TEMP:  85;

HUTCHINSON     CLOUDY    71  54  54 N10G23    30.02F
6HR MIN TEMP:  67; 6HR MAX TEMP:  80; 6HR PCP: TRACE;

MEDICINE LODGE   N/A     78  47  33 NE20G28   29.96F
NEWTON         CLOUDY    76  52  43 N20G29    29.96F
PARSONS        PTSUNNY   85  61  44 N17G26    29.90R
6HR MIN TEMP:  73; 6HR MAX TEMP:  85;

WICHITA INTL   MOSUNNY   84  49  29 NE26G37   29.94F
6HR MIN TEMP:  73; 6HR MAX TEMP:  84;

WICHITA JABRA  SUNNY     81  49  32 N22G30    29.95F
6HR MIN TEMP:  72; 6HR MAX TEMP:  82;

WINFIELD       SUNNY     85  51  31 NE21G30   29.94S
6HR MIN TEMP:  73; 6HR MAX TEMP:  85;

$$

KSZ007>012-019>026-033>040-048>060-102>105-231900-
NORTHEAST KANSAS

CITY           SKY/WX    TMP DP  RH WIND       PRES   REMARKS
CONCORDIA      CLOUDY    74  45  35 N25G35    30.06F
6HR MIN TEMP:  68; 6HR MAX TEMP:  76;

EMPORIA        SUNNY     81  53  37 N15G25    29.96R
6HR MIN TEMP:  73; 6HR MAX TEMP:  82;

LAWRENCE       SUNNY     80  58  46 NW16      29.94R
6HR MIN TEMP:  73; 6HR MAX TEMP:  81;

MANHATTAN      CLOUDY    77  47  34 N16G24    30.01S
6HR MIN TEMP:  72; 6HR MAX TEMP:  78; 6HR PCP: TRACE;

OLATHE IND     MOSUNNY   81  60  48 NW20G28   29.93R
6HR MIN TEMP:  71; 6HR MAX TEMP:  82; 6HR PCP: TRACE;

OLATHE EXE     SUNNY     82  55  39 N17G29    29.92R
6HR MIN TEMP:  70; 6HR MAX TEMP:  83; 6HR PCP:  0.06;

SALINA         CLOUDY    78  45  30 N21G29    30.02S
6HR MIN TEMP:  67; 6HR MAX TEMP:  78; 6HR PCP:  0.01;

TOPEKA BILLARD MOSUNNY   80  58  46 N15G23    29.95F
6HR MIN TEMP:  72; 6HR MAX TEMP:  80; 6HR PCP: TRACE;

TOPEKA FORBES  MOSUNNY   80  54  40 N16G23    29.96S
6HR MIN TEMP:  74; 6HR MAX TEMP:  82;

$$




USA.gov is the U.S. government's official web portal to all federal, state and local government web resources and services.